Location: Qazi Observatory
(41.6337°N, 88.1517°W)
Time: 20:48:29
(UTC-06:00)

Amateur Radio Satellites - All Passes

Search period start: 05 February 2016 20:18
Search period end: 06 February 2016 20:18
Location: Qazi Observatory, 41.6337°N, 88.1517°W

Satellite Date Start Highest point End Downlink Frequencies (MHz)
Time Altitude Azimuth
DELFI C3 05 Feb 20:22:25 20:26:05 38° 72° (ENE) 20:29:47 145.870
ISS 05 Feb 20:26:37 20:28:27 14° 358° (N) 20:30:17 145.825
Oscar 11 05 Feb 20:31:17 20:35:34 87° 251° (WSW) 20:39:54 145.826/435.025
HUMSAT D 05 Feb 20:40:11 20:43:34 25° 69° (ENE) 20:46:58 437.325/437.525
HO-68 05 Feb 20:49:03 20:54:27 23° 268° (W) 20:59:55 435.675
CINEMA 3 05 Feb 21:00:23 21:02:18 12° 270° (W) 21:04:12 145.822/145.860
UNISAT 6 05 Feb 21:05:40 21:06:17 10° 90° (E) 21:06:55 437.425
AO-85 05 Feb 21:06:00 21:10:24 30° 248° (WSW) 21:14:27 145.980
COMPASS 1 05 Feb 21:11:09 21:12:23 11° 270° (W) 21:13:38 437.405
VELOX 1 05 Feb 21:14:44 21:17:09 15° 62° (ENE) 21:19:35 145.980
GONETS M04 05 Feb 21:15:17 21:23:40 51° 271° (W) 21:32:04
ZACube-1 05 Feb 21:16:06 21:20:01 35° 262° (W) 21:23:53 437.345
PCSat 05 Feb 21:20:24 21:25:40 52° 246° (WSW) 21:30:54 145.827
AIST 2 05 Feb 21:27:00 21:29:55 18° 317° (NW) 21:32:51 435.215
FUNcube-1 05 Feb 21:28:00 21:31:39 27° 264° (W) 21:35:16 145.935
AISAT 05 Feb 21:29:25 21:32:47 21° 66° (ENE) 21:36:10 437.250
50 SAT 05 Feb 21:31:45 21:34:33 21° 68° (ENE) 21:37:22 437.505
ESTCUBE 1 05 Feb 21:32:13 21:35:49 24° 67° (ENE) 21:39:27 437.505/2401.250
AIST 1 05 Feb 21:38:15 21:42:26 42° 78° (ENE) 21:46:32
CUBEBUG 2 05 Feb 21:39:40 21:41:04 11° 270° (W) 21:42:27 437.445
ANTELSAT 05 Feb 21:47:59 21:51:51 31° 97° (E) 21:55:44 437.575/2403.000
UWE-3 05 Feb 21:50:18 21:51:48 12° 270° (W) 21:53:19 435.000/436.395/437.385
TIGRISAT 05 Feb 21:56:26 22:00:26 37° 98° (E) 22:04:28 435.000
Cosmos 2499 05 Feb 21:57:43 22:06:04 59° 269° (W) 22:13:47 435.465 / 435.565
DELFI C3 05 Feb 21:58:41 22:01:10 16° 268° (W) 22:03:40 145.870
CUBEBUG 1 05 Feb 22:02:03 22:06:05 35° 70° (ENE) 22:10:07 437.445
ISS 05 Feb 22:03:13 22:05:48 21° 19° (NNE) 22:08:23 145.825
UKube-1 05 Feb 22:07:24 22:11:33 46° 72° (ENE) 22:15:42 .
DX 1 05 Feb 22:10:51 22:15:10 59° 73° (ENE) 22:19:30 434.975-435.025
POLYITAN 1 05 Feb 22:12:57 22:15:12 14° 92° (E) 22:17:26 437.675
QB50P2 05 Feb 22:13:43 22:16:09 15° 92° (E) 22:18:33 145.880/145.840
HUMSAT D 05 Feb 22:15:45 22:19:09 25° 265° (W) 22:22:34 437.325/437.525
RS-15 05 Feb 22:15:45 22:27:18 53° 249° (WSW) 22:38:58 29.354- 29.394
SPROUT 05 Feb 22:25:37 22:28:59 22° 67° (ENE) 22:32:21 437.525
UNISAT 6 05 Feb 22:39:09 22:43:26 69° 286° (WNW) 22:47:47 437.425
BUGSAT 1 05 Feb 22:42:27 22:44:30 14° 91° (E) 22:46:32 437.445
POPSAT HIP 1 05 Feb 22:43:40 22:47:23 30° 96° (E) 22:51:05 437.405
VELOX 1 05 Feb 22:48:44 22:53:09 59° 259° (W) 22:57:35 145.980
NANOSAT C BR1 05 Feb 22:51:13 22:55:06 35° 98° (E) 22:58:57 145.865
TISAT 1 05 Feb 22:53:10 22:55:58 17° 65° (ENE) 22:58:45 437.305
DUCHIFAT 1 05 Feb 22:54:45 22:58:39 37° 98° (E) 23:02:31 145.980
QB50P1 05 Feb 22:56:34 23:00:35 42° 99° (E) 23:04:34 145.935-145.965
AISAT 05 Feb 23:04:52 23:09:02 38° 262° (W) 23:13:14 437.250
50 SAT 05 Feb 23:05:21 23:08:28 25° 264° (W) 23:11:35 437.505
ESTCUBE 1 05 Feb 23:08:22 23:12:27 34° 263° (W) 23:16:36 437.505/2401.250
AIST 1 05 Feb 23:16:59 23:19:38 16° 274° (W) 23:22:16
ANTELSAT 05 Feb 23:25:01 23:28:25 23° 293° (WNW) 23:31:52 437.575/2403.000
TIGRISAT 05 Feb 23:33:46 23:36:54 20° 293° (WNW) 23:40:03 435.000
CUBEBUG 1 05 Feb 23:39:02 23:42:27 22° 266° (W) 23:45:53 437.445
ISS 05 Feb 23:39:19 23:42:35 78° 215° (SW) 23:45:49 145.825
UKube-1 05 Feb 23:45:09 23:47:50 16° 268° (W) 23:50:32 .
POLYITAN 1 05 Feb 23:47:14 23:51:18 48° 287° (WNW) 23:55:20 437.675
QB50P2 05 Feb 23:48:10 23:52:12 46° 288° (WNW) 23:56:13 145.880/145.840
DX 1 05 Feb 23:49:49 23:51:44 13° 269° (W) 23:53:40 434.975-435.025
SWISSCUBE 05 Feb 23:53:46 23:56:57 18° 63° (ENE) 00:00:08 437.505
Oscar 19 05 Feb 23:56:16 23:57:01 10° 88° (E) 23:57:47 437.125/150
SPROUT 06 Feb 00:00:54 00:04:46 32° 263° (W) 00:08:41 437.525
Cosmos 2491 06 Feb 00:11:41 00:13:21 11° 53° (NE) 00:15:01 435.465 / 435.565
BUGSAT 1 06 Feb 00:16:16 00:20:10 46° 288° (WNW) 00:24:01 437.445
POPSAT HIP 1 06 Feb 00:19:44 00:23:02 23° 293° (WNW) 00:26:21 437.405
ITUPSAT 1 06 Feb 00:26:52 00:31:05 33° 68° (ENE) 00:35:21 437.325
TISAT 1 06 Feb 00:27:16 00:31:18 42° 261° (W) 00:35:22 437.305
NANOSAT C BR1 06 Feb 00:27:35 00:30:37 20° 294° (WNW) 00:33:38 145.865
DUCHIFAT 1 06 Feb 00:31:10 00:34:06 19° 294° (WNW) 00:37:02 145.980
CUSAT 1 06 Feb 00:32:43 00:37:55 20° 80° (E) 00:43:18 437.405
QB50P1 06 Feb 00:33:19 00:36:02 17° 295° (WNW) 00:38:44 145.935-145.965
BEESAT 06 Feb 00:38:06 00:42:34 43° 70° (ENE) 00:47:05 436.000
JAS-2 06 Feb 00:40:30 00:44:48 21° 90° (E) 00:48:49 435.910
Gurwin Techsat 1B 06 Feb 01:26:43 01:31:26 31° 96° (E) 01:36:06 435.225
SWISSCUBE 06 Feb 01:29:42 01:34:20 52° 260° (W) 01:39:01 437.505
Oscar 19 06 Feb 01:31:51 01:37:02 89° 276° (W) 01:42:09 437.125/150
STARS 06 Feb 01:50:30 01:53:34 19° 65° (ENE) 01:56:38 437.465
KKS-1 06 Feb 01:54:18 01:58:23 36° 70° (ENE) 02:02:29 437.445
Cosmos 2491 06 Feb 02:03:53 02:12:28 56° 77° (ENE) 02:21:02 435.465 / 435.565
ITUPSAT 1 06 Feb 02:04:56 02:08:56 27° 265° (W) 02:12:59 437.325
DANDE 06 Feb 02:07:31 02:14:35 55° 92° (E) 02:22:45 436.750
CUSAT 1 06 Feb 02:11:27 02:19:09 89° 279° (W) 02:27:22 437.405
PHONESAT 2.4 06 Feb 02:14:46 02:17:20 21° 154° (SSE) 02:19:53 2401.200-2431.200
BEESAT 06 Feb 02:17:04 02:20:33 20° 267° (W) 02:24:04 436.000
JAS-2 06 Feb 02:24:38 02:30:21 50° 291° (WNW) 02:35:30 435.910
ITAMSAT 1 06 Feb 02:30:40 02:35:54 64° 102° (ESE) 02:41:05 435.822/435.867
BEESAT 3 06 Feb 02:31:32 02:35:26 51° 54° (NE) 02:39:16 437.485
BEESAT 2 06 Feb 02:47:40 02:51:34 49° 53° (NE) 02:55:26 435.950
MOZHAYETS 4 06 Feb 02:51:29 02:55:54 53° 73° (ENE) 03:00:22
YUBILEINY 06 Feb 02:55:26 03:03:45 50° 89° (E) 03:12:08 435.215
Gurwin Techsat 1B 06 Feb 03:06:36 03:11:21 34° 293° (WNW) 03:16:05 435.225
HORYU 2 06 Feb 03:13:31 03:15:43 13° 91° (E) 03:17:54 437.375
Oscar 19 06 Feb 03:13:40 03:15:33 12° 302° (WNW) 03:17:27 437.125/150
CUBESAT XI-V 06 Feb 03:22:43 03:24:47 13° 61° (ENE) 03:26:51 437.345
STARS 06 Feb 03:25:26 03:29:38 42° 261° (W) 03:33:50 437.465
M-CUBED/EXP-1 PRIME 06 Feb 03:26:58 03:29:29 20° 102° (ESE) 03:32:05 437.505
AO-7 06 Feb 03:28:15 03:36:24 54° 102° (ESE) 03:44:28 29.400- 29.500
Cosmos 2504 06 Feb 03:30:36 03:35:33 17° 75° (ENE) 03:40:36 435.465 / 435.565
KKS-1 06 Feb 03:31:38 03:35:03 21° 266° (W) 03:38:28 437.445
AUBIESAT-1 06 Feb 03:40:32 03:43:22 24° 102° (ESE) 03:46:17 437.475
PHONESAT 2.4 06 Feb 03:51:03 03:54:16 60° 170° (S) 03:57:30 2401.200-2431.200
DANDE 06 Feb 03:51:14 03:57:57 35° 293° (WNW) 04:05:30 436.750
CUSAT 1 06 Feb 03:56:49 04:02:32 21° 298° (WNW) 04:08:24 437.405
Cosmos 2491 06 Feb 04:01:28 04:08:48 32° 277° (W) 04:16:11 435.465 / 435.565
AIST 2 06 Feb 04:08:21 04:12:15 38° 51° (NE) 04:16:06 435.215
BEESAT 3 06 Feb 04:10:42 04:12:45 14° 250° (WSW) 04:14:47 437.485
ITAMSAT 1 06 Feb 04:11:28 04:14:50 18° 299° (WNW) 04:18:12 435.822/435.867
BEESAT 2 06 Feb 04:26:49 04:29:03 15° 250° (WSW) 04:31:17 435.950
MOZHAYETS 4 06 Feb 04:30:48 04:33:25 15° 269° (W) 04:36:02
SO-50 06 Feb 04:41:14 04:44:38 19° 110° (ESE) 04:48:04 436.795
HORYU 2 06 Feb 04:48:16 04:52:38 57° 287° (WNW) 04:56:58 437.375
YUBILEINY 06 Feb 04:52:50 05:00:45 37° 289° (WNW) 05:08:46 435.215
CUBESAT XI-V 06 Feb 04:56:51 05:01:32 74° 258° (WSW) 05:06:15 437.345
M-CUBED/EXP-1 PRIME 06 Feb 05:01:29 05:04:06 22° 295° (WNW) 05:06:49 437.505
AUBIESAT-1 06 Feb 05:15:24 05:17:52 19° 296° (WNW) 05:20:22 437.475
CUTE-I 06 Feb 05:16:37 05:20:45 22° 93° (E) 05:24:50 437.470
Cosmos 2504 06 Feb 05:19:01 05:27:28 84° 95° (E) 05:36:23 435.465 / 435.565
AO-7 06 Feb 05:21:29 05:28:51 36° 301° (WNW) 05:36:10 29.400- 29.500
LilacSat-2 06 Feb 05:26:07 05:28:48 18° 93° (E) 05:31:27 437.200
PHONESAT 2.4 06 Feb 05:28:13 05:31:29 68° 186° (S) 05:34:43 2401.200-2431.200
Cubesat XI-IV 06 Feb 05:28:35 05:33:11 28° 95° (E) 05:37:46 437.490
STRAND 1 06 Feb 05:29:59 05:34:35 35° 68° (ENE) 05:39:13 437.568
AIST 2 06 Feb 05:47:25 05:50:30 20° 248° (WSW) 05:53:33 435.215
BRITE-PL 06 Feb 05:56:32 06:00:37 26° 93° (E) 06:04:26 437.365/2234.400
SO-50 06 Feb 06:19:52 06:24:42 57° 307° (NW) 06:29:36 436.795
HO-68 06 Feb 06:30:45 06:32:20 11° 86° (E) 06:33:55 435.675
PRISM 06 Feb 06:49:53 06:54:00 69° 74° (ENE) 06:58:11 437.425
CUTE-I 06 Feb 06:55:51 07:01:01 48° 290° (WNW) 07:06:09 437.470
LilacSat-2 06 Feb 06:59:52 07:03:10 29° 289° (WNW) 07:06:28 437.200
PHONESAT 2.4 06 Feb 07:05:39 07:08:32 28° 203° (SSW) 07:11:23 2401.200-2431.200
Cubesat XI-IV 06 Feb 07:08:23 07:13:19 38° 292° (WNW) 07:18:15 437.490
CUTE 1.7 + AOD 2 06 Feb 07:08:59 07:11:22 15° 91° (E) 07:13:45 437.475
STRAND 1 06 Feb 07:09:26 07:13:47 28° 265° (W) 07:18:10 437.568
Cosmos 2504 06 Feb 07:15:41 07:22:01 22° 297° (WNW) 07:28:33 435.465 / 435.565
CINEMA 3 06 Feb 07:16:21 07:18:25 13° 91° (E) 07:20:30 145.822/145.860
SEEDS 06 Feb 07:22:45 07:25:19 16° 91° (E) 07:27:53 437.485
GOMX 1 06 Feb 07:24:00 07:28:35 77° 285° (WNW) 07:32:52 467.674
DOVE 4 06 Feb 07:26:29 07:30:45 55° 100° (E) 07:34:50 437.250
BRITE-PL 06 Feb 07:34:46 07:39:09 32° 292° (WNW) 07:43:13 437.365/2234.400
O/OREOS (USA 219) 06 Feb 07:36:18 07:39:30 20° 101° (E) 07:42:44 437.305
AAUSAT CUBESAT 2 06 Feb 07:48:47 07:51:42 18° 93° (E) 07:54:37 437.432
CANX-2 06 Feb 07:51:52 07:56:03 49° 99° (E) 08:00:12 2200.000
CUBEBUG 2 06 Feb 07:52:17 07:53:53 12° 91° (E) 07:55:29 437.445
UWE-3 06 Feb 08:02:24 08:03:36 11° 90° (E) 08:04:48 435.000/436.395/437.385
SO-50 06 Feb 08:04:20 08:06:17 12° 327° (NNW) 08:08:13 436.795
UNISAT 6 06 Feb 08:05:25 08:06:15 10° 61° (ENE) 08:07:05 437.425
HO-68 06 Feb 08:14:02 08:21:15 70° 104° (ESE) 08:28:25 435.675
Oscar 11 06 Feb 08:19:23 08:22:12 17° 92° (E) 08:25:01 145.826/435.025
GONETS M04 06 Feb 08:20:15 08:28:05 40° 86° (E) 08:35:58
Cosmos 2499 06 Feb 08:42:09 08:48:39 24° 80° (E) 08:55:16 435.465 / 435.565
CUTE 1.7 + AOD 2 06 Feb 08:43:21 08:47:29 49° 287° (WNW) 08:51:36 437.475
ANTELSAT 06 Feb 08:47:15 08:51:00 29° 69° (ENE) 08:54:42 437.575/2403.000
COMPASS 1 06 Feb 08:50:27 08:54:40 73° 285° (WNW) 08:58:52 437.405
CINEMA 3 06 Feb 08:51:52 08:55:53 47° 287° (WNW) 08:59:52 145.822/145.860
TIGRISAT 06 Feb 08:55:25 08:59:20 33° 70° (ENE) 09:03:12 435.000
SEEDS 06 Feb 08:57:12 09:01:16 45° 287° (WNW) 09:05:19 437.485
ZACube-1 06 Feb 09:03:46 09:07:42 39° 98° (E) 09:11:41 437.345
DOVE 4 06 Feb 09:05:49 09:07:57 14° 298° (WNW) 09:10:02 437.250
POLYITAN 1 06 Feb 09:06:55 09:08:36 12° 62° (ENE) 09:10:17 437.675
QB50P2 06 Feb 09:07:34 09:09:28 13° 63° (ENE) 09:11:21 145.880/145.840
O/OREOS (USA 219) 06 Feb 09:14:24 09:18:35 39° 298° (WNW) 09:22:51 437.305
FUNcube-1 06 Feb 09:14:57 09:19:02 50° 100° (E) 09:23:09 145.935
AAUSAT CUBESAT 2 06 Feb 09:23:27 09:27:20 37° 289° (WNW) 09:31:13 437.432
CUBEBUG 2 06 Feb 09:26:47 09:30:51 55° 286° (WNW) 09:34:58 437.445
CANX-2 06 Feb 09:28:59 09:31:31 16° 295° (WNW) 09:34:03 2200.000
BUGSAT 1 06 Feb 09:33:33 09:34:57 11° 62° (ENE) 09:36:22 437.445
DELFI C3 06 Feb 09:34:42 09:38:44 63° 101° (E) 09:42:44 145.870
UWE-3 06 Feb 09:36:20 09:40:27 60° 285° (WNW) 09:44:37 435.000/436.395/437.385
POPSAT HIP 1 06 Feb 09:36:39 09:40:04 24° 68° (ENE) 09:43:30 437.405
UNISAT 6 06 Feb 09:38:00 09:42:22 78° 259° (WSW) 09:46:41 437.425
AO-85 06 Feb 09:41:50 09:44:14 13° 105° (ESE) 09:46:40 145.980
NANOSAT C BR1 06 Feb 09:43:45 09:47:22 28° 69° (ENE) 09:51:00 145.865
DUCHIFAT 1 06 Feb 09:47:01 09:50:40 29° 69° (ENE) 09:54:20 145.980
QB50P1 06 Feb 09:49:14 09:53:03 33° 70° (ENE) 09:56:52 145.935-145.965
Oscar 11 06 Feb 09:54:25 09:58:32 43° 288° (WNW) 10:02:39 145.826/435.025
HUMSAT D 06 Feb 09:58:08 10:02:09 46° 99° (E) 10:06:10 437.325/437.525
HO-68 06 Feb 10:02:47 10:08:19 25° 302° (WNW) 10:13:51 435.675
AIST 1 06 Feb 10:08:05 10:11:41 25° 89° (E) 10:15:19
GONETS M04 06 Feb 10:16:34 10:24:46 45° 286° (WNW) 10:33:02
PCSat 06 Feb 10:20:30 10:24:18 20° 106° (ESE) 10:28:06 145.827
ANTELSAT 06 Feb 10:24:08 10:27:43 25° 265° (W) 10:31:16 437.575/2403.000
RS-15 06 Feb 10:29:21 10:38:03 28° 102° (ESE) 10:47:03 29.354- 29.394
Cosmos 2499 06 Feb 10:32:13 10:40:49 75° 279° (W) 10:49:46 435.465 / 435.565
TIGRISAT 06 Feb 10:32:46 10:36:05 21° 266° (W) 10:39:24 435.000
50 SAT 06 Feb 10:36:22 10:39:38 27° 97° (E) 10:42:53 437.505
VELOX 1 06 Feb 10:39:14 10:42:54 25° 95° (E) 10:46:30 145.980
POLYITAN 1 06 Feb 10:39:40 10:43:53 65° 259° (WSW) 10:48:07 437.675
QB50P2 06 Feb 10:40:33 10:44:46 61° 259° (WSW) 10:48:59 145.880/145.840
ZACube-1 06 Feb 10:40:52 10:43:44 18° 294° (WNW) 10:46:38 437.345
FUNcube-1 06 Feb 10:52:34 10:54:54 15° 295° (WNW) 10:57:14 145.935
JAS-2 06 Feb 10:53:36 10:57:38 16° 56° (NE) 11:01:31 435.910
AISAT 06 Feb 10:54:48 10:58:56 38° 98° (E) 11:03:01 437.250
ESTCUBE 1 06 Feb 11:00:12 11:04:37 48° 99° (E) 11:09:00 437.505/2401.250
BUGSAT 1 06 Feb 11:05:34 11:09:48 69° 258° (WSW) 11:13:59 437.445
CUSAT 1 06 Feb 11:11:12 11:12:31 11° 52° (NE) 11:13:47 437.405
Oscar 19 06 Feb 11:11:45 11:15:11 18° 62° (ENE) 11:18:36 437.125/150
DELFI C3 06 Feb 11:11:49 11:13:07 11° 297° (WNW) 11:14:24 145.870
POPSAT HIP 1 06 Feb 11:12:02 11:15:45 29° 264° (W) 11:19:28 437.405
AO-85 06 Feb 11:18:36 11:23:57 90° 306° (NW) 11:29:30 145.980
NANOSAT C BR1 06 Feb 11:19:36 11:23:05 25° 265° (W) 11:26:35 145.865
DUCHIFAT 1 06 Feb 11:22:56 11:26:22 24° 265° (W) 11:29:48 145.980
QB50P1 06 Feb 11:25:40 11:28:54 21° 266° (W) 11:32:08 145.935-145.965
CUBEBUG 1 06 Feb 11:26:15 11:30:38 69° 102° (ESE) 11:34:57 437.445
UKube-1 06 Feb 11:30:06 11:34:27 83° 106° (ESE) 11:38:46 .
DX 1 06 Feb 11:34:53 11:39:15 74° 285° (WNW) 11:43:34 434.975-435.025
HUMSAT D 06 Feb 11:34:58 11:37:25 15° 295° (WNW) 11:39:53 437.325/437.525
AIST 1 06 Feb 11:45:26 11:49:11 27° 286° (WNW) 11:52:59
SPROUT 06 Feb 11:46:30 11:50:32 39° 98° (E) 11:54:31 437.525
PCSat 06 Feb 12:01:52 12:07:12 59° 303° (WNW) 12:12:35 145.827
50 SAT 06 Feb 12:10:38 12:13:31 21° 292° (WNW) 12:16:24 437.505
TISAT 1 06 Feb 12:11:19 12:14:54 27° 96° (E) 12:18:27 437.305
ITAMSAT 1 06 Feb 12:12:47 12:15:16 14° 59° (ENE) 12:17:45 435.822/435.867
VELOX 1 06 Feb 12:15:29 12:19:22 30° 292° (WNW) 12:23:13 145.980
Cosmos 2499 06 Feb 12:30:33 12:35:38 16° 301° (WNW) 12:40:48 435.465 / 435.565
AISAT 06 Feb 12:31:54 12:35:10 21° 295° (WNW) 12:38:25 437.250
JAS-2 06 Feb 12:33:52 12:41:36 73° 73° (ENE) 12:48:48 435.910
RS-15 06 Feb 12:37:55 12:49:05 80° 304° (NW) 13:00:56 29.354- 29.394
ESTCUBE 1 06 Feb 12:38:01 12:41:03 18° 296° (WNW) 12:44:04 437.505/2401.250
AO-7 06 Feb 12:38:53 12:43:58 18° 48° (NE) 12:49:03 29.400- 29.500
BEESAT 06 Feb 12:40:53 12:41:45 10° 89° (E) 12:42:36 436.000
Gurwin Techsat 1B 06 Feb 12:47:50 12:52:57 50° 71° (ENE) 12:58:05 435.225
Oscar 19 06 Feb 12:48:52 12:54:00 61° 259° (W) 12:59:09 437.125/150
DANDE 06 Feb 12:49:24 12:56:37 44° 70° (ENE) 13:02:18 436.750
CUSAT 1 06 Feb 12:50:07 12:56:37 70° 77° (ENE) 13:01:29 437.405
AO-85 06 Feb 13:01:25 13:05:16 19° 322° (NW) 13:09:09 145.980
CUBEBUG 1 06 Feb 13:04:37 13:06:20 12° 299° (WNW) 13:08:03 437.445
YUBILEINY 06 Feb 13:05:42 13:12:42 25° 65° (ENE) 13:19:37 435.215
UKube-1 06 Feb 13:09:28 13:09:50 10° 300° (WNW) 13:10:12 .
SO-50 06 Feb 13:11:31 13:15:15 22° 42° (NE) 13:18:54 436.795
Cosmos 2491 06 Feb 13:16:49 13:18:31 11° 72° (ENE) 13:20:12 435.465 / 435.565
SPROUT 06 Feb 13:23:16 13:26:13 18° 294° (WNW) 13:29:09 437.525
SWISSCUBE 06 Feb 13:29:40 13:34:09 38° 98° (E) 13:38:37 437.505
TISAT 1 06 Feb 13:47:03 13:50:29 25° 292° (WNW) 13:53:53 437.305
ITAMSAT 1 06 Feb 13:48:50 13:54:01 83° 256° (WSW) 13:59:16 435.822/435.867
PCSat 06 Feb 13:49:39 13:51:47 12° 324° (NW) 13:53:55 145.827
ITUPSAT 1 06 Feb 14:04:09 14:09:00 77° 103° (ESE) 14:13:49 437.325
HORYU 2 06 Feb 14:12:16 14:14:34 14° 62° (ENE) 14:16:51 437.375
M-CUBED/EXP-1 PRIME 06 Feb 14:14:09 14:17:28 30° 67° (ENE) 14:20:37 437.505
BEESAT 06 Feb 14:15:17 14:20:07 81° 284° (WNW) 14:24:54 436.000
JAS-2 06 Feb 14:21:09 14:27:02 23° 268° (W) 14:32:40 435.910
AO-7 06 Feb 14:27:02 14:35:21 74° 68° (ENE) 14:43:42 29.400- 29.500
AUBIESAT-1 06 Feb 14:27:23 14:30:48 35° 67° (ENE) 14:34:03 437.475
Gurwin Techsat 1B 06 Feb 14:29:16 14:33:09 21° 267° (W) 14:37:06 435.225
DANDE 06 Feb 14:32:50 14:39:16 33° 275° (W) 14:44:29 436.750
CUSAT 1 06 Feb 14:34:23 14:37:41 15° 282° (WNW) 14:40:34 437.405
MOZHAYETS 4 06 Feb 14:48:08 14:50:08 13° 90° (E) 14:52:07
SO-50 06 Feb 14:51:25 14:56:09 59° 241° (WSW) 15:00:43 436.795
RS-15 06 Feb 14:53:56 15:03:42 31° 333° (NNW) 15:13:56 29.354- 29.394
YUBILEINY 06 Feb 15:01:33 15:10:22 74° 266° (W) 15:19:07 435.215
Cosmos 2491 06 Feb 15:04:54 15:13:28 65° 92° (E) 15:22:03 435.465 / 435.565
SWISSCUBE 06 Feb 15:07:55 15:11:44 24° 295° (WNW) 15:15:31 437.505
Cosmos 2504 06 Feb 15:12:22 15:20:03 33° 69° (ENE) 15:27:18 435.465 / 435.565
STARS 06 Feb 15:14:41 15:18:37 32° 97° (E) 15:22:31 437.465
KKS-1 06 Feb 15:21:02 15:25:29 72° 102° (ESE) 15:29:53 437.445
ITUPSAT 1 06 Feb 15:44:01 15:46:12 13° 300° (WNW) 15:48:22 437.325
HORYU 2 06 Feb 15:46:16 15:50:38 60° 259° (WSW) 15:55:01 437.375
M-CUBED/EXP-1 PRIME 06 Feb 15:49:35 15:52:09 17° 259° (W) 15:54:38 437.505
AUBIESAT-1 06 Feb 16:03:19 16:05:28 15° 260° (W) 16:07:34 437.475
LilacSat-2 06 Feb 16:10:34 16:11:24 11° 63° (ENE) 16:12:13 437.200
ISS 06 Feb 16:19:19 16:22:07 27° 136° (SE) 16:24:55 145.825
AO-7 06 Feb 16:22:19 16:28:47 24° 267° (W) 16:35:19 29.400- 29.500
MOZHAYETS 4 06 Feb 16:23:08 16:27:44 65° 286° (WNW) 16:32:20
CUTE-I 06 Feb 16:38:26 16:43:16 37° 68° (ENE) 16:48:08 437.470
Cubesat XI-IV 06 Feb 16:50:39 16:55:43 47° 70° (ENE) 17:00:49 437.490
STARS 06 Feb 16:51:21 16:54:50 23° 293° (WNW) 16:58:17 437.465
CUBESAT XI-V 06 Feb 16:53:42 16:57:44 27° 95° (E) 17:01:42 437.345
GOMX 1 06 Feb 16:55:41 16:58:49 16° 62° (ENE) 17:01:53 467.674
KKS-1 06 Feb 16:59:45 17:01:27 12° 299° (WNW) 17:03:09 437.445
YUBILEINY 06 Feb 17:01:43 17:05:29 13° 286° (WNW) 17:09:15 435.215
HO-68 06 Feb 17:02:01 17:03:17 11° 47° (NE) 17:04:32 435.675
Cosmos 2491 06 Feb 17:03:43 17:10:56 28° 293° (WNW) 17:18:12 435.465 / 435.565
Cosmos 2504 06 Feb 17:05:25 17:13:51 56° 270° (W) 17:21:44 435.465 / 435.565
BRITE-PL 06 Feb 17:06:01 17:11:10 36° 69° (ENE) 17:16:16 437.365/2234.400
RS-15 06 Feb 17:12:32 17:21:29 23° 8° (N) 17:30:40 29.354- 29.394
LilacSat-2 06 Feb 17:41:26 17:45:13 60° 260° (W) 17:49:00 437.200
STRAND 1 06 Feb 17:42:34 17:44:03 11° 88° (E) 17:45:31 437.568
O/OREOS (USA 219) 06 Feb 17:44:39 17:48:59 40° 62° (ENE) 17:53:19 437.305
ISS 06 Feb 17:55:25 17:58:28 37° 332° (NNW) 18:01:33 145.825
BEESAT 3 06 Feb 18:00:04 18:04:02 89° 290° (WNW) 18:08:03 437.485
CUTE 1.7 + AOD 2 06 Feb 18:03:23 18:04:43 11° 62° (ENE) 18:06:03 437.475
AO-85 06 Feb 18:11:26 18:14:44 16° 35° (NE) 18:17:54 145.980
SEEDS 06 Feb 18:16:10 18:17:42 12° 62° (ENE) 18:19:13 437.485
BEESAT 2 06 Feb 18:17:30 18:21:32 90° 40° (NE) 18:25:35 435.950
CINEMA 3 06 Feb 18:18:07 18:20:55 16° 65° (ENE) 18:23:39 145.822/145.860
CUTE-I 06 Feb 18:18:48 18:23:21 29° 265° (W) 18:27:57 437.470
GONETS M04 06 Feb 18:30:24 18:36:31 20° 62° (ENE) 18:42:35
GOMX 1 06 Feb 18:30:50 18:36:18 76° 257° (WSW) 18:41:37 467.674
CUBESAT XI-V 06 Feb 18:30:57 18:35:05 31° 291° (WNW) 18:39:11 437.345
DOVE 4 06 Feb 18:31:03 18:36:10 61° 74° (ENE) 18:41:02 437.250
Cubesat XI-IV 06 Feb 18:31:55 18:36:01 22° 267° (W) 18:40:08 437.490
AAUSAT CUBESAT 2 06 Feb 18:40:32 18:42:30 13° 63° (ENE) 18:44:28 437.432
HO-68 06 Feb 18:42:30 18:49:23 53° 67° (ENE) 18:56:19 435.675
BRITE-PL 06 Feb 18:44:29 18:49:34 33° 265° (W) 18:54:39 437.365/2234.400
CANX-2 06 Feb 18:44:54 18:48:44 35° 71° (ENE) 18:52:35 2200.000
CUBEBUG 2 06 Feb 18:51:22 18:52:57 12° 63° (ENE) 18:54:33 437.445
UWE-3 06 Feb 19:00:51 19:01:38 10° 62° (ENE) 19:02:25 435.000/436.395/437.385
PCSat 06 Feb 19:06:58 19:10:58 20° 44° (NE) 19:14:56 145.827
Oscar 11 06 Feb 19:15:10 19:17:27 14° 64° (ENE) 19:19:45 145.826/435.025
STRAND 1 06 Feb 19:18:40 19:23:51 85° 284° (WNW) 19:29:01 437.568
O/OREOS (USA 219) 06 Feb 19:24:44 19:28:05 20° 259° (W) 19:31:26 437.305
RS-15 06 Feb 19:26:50 19:38:16 45° 41° (NE) 19:49:54 29.354- 29.394
ISS 06 Feb 19:33:37 19:35:37 15° 352° (N) 19:37:37 145.825
CUTE 1.7 + AOD 2 06 Feb 19:35:49 19:39:59 68° 258° (WSW) 19:44:12 437.475
BEESAT 3 06 Feb 19:40:49 19:42:25 12° 321° (NW) 19:44:02 437.485
COMPASS 1 06 Feb 19:41:09 19:45:17 76° 75° (ENE) 19:49:27 437.405
AIST 2 06 Feb 19:43:52 19:48:02 77° 121° (ESE) 19:52:13 435.215
SEEDS 06 Feb 19:48:44 19:52:52 65° 259° (W) 19:57:02 437.485
AO-85 06 Feb 19:50:57 19:56:10 83° 57° (ENE) 20:00:54 145.980
CINEMA 3 06 Feb 19:53:02 19:57:40 55° 260° (W) 20:02:08 145.822/145.860
BEESAT 2 06 Feb 19:58:18 20:00:02 12° 321° (NW) 20:01:45 435.950
ZACube-1 06 Feb 19:59:58 20:03:43 31° 70° (ENE) 20:07:26 437.345
PRISM 06 Feb 20:06:38 20:10:50 74° 286° (WNW) 20:14:59 437.425
DOVE 4 06 Feb 20:11:01 20:14:09 16° 269° (W) 20:17:14 437.250
